FW6326 Weather Reports


time (UTC)temp
F
wind
direction
speed
knots
gust
knots
rain 1hr
in
rain 24hr
in
rain mn
in
humidity
%
barometer
mb
20260504191615 51 239 12.2 22.6 0.00 0.50 0.00 62 1002.9
20260504190058 52 214 18.2 29.5 0.00 0.50 0.00 57 1002.9
20260504184603 56 275 15.6 31.3 0.00 0.60 0.00 39 1002.6
20260504183100 55 244 15.6 27.8 0.00 0.60 0.00 40 1002.6
20260504181555 55 264 16.5 27.8 0.00 0.60 0.00 43 1002.6
20260504180054 55 292 13.9 26.9 0.00 0.60 0.00 47 1002.5
20260504174553 54 281 12.2 32.2 0.00 0.62 0.00 52 1002.2
20260504173055 54 175 13.9 24.3 0.00 0.62 0.00 53 1002.0
20260504171556 53 230 13.9 27.8 0.00 0.62 0.00 52 1001.8
20260504170107 54 312 14.8 25.2 0.00 0.62 0.00 54 1001.7
20260504140104 44 232 14.8 26.1 0.00 0.62 0.00 84 1000.6
20260504081555 36 283 15.6 26.9 0.00 0.62 0.00 91 990.3
20260504060105 36 271 12.2 28.7 0.00 0.62 0.00 92 985.1
20260504050123 36 289 13.0 26.1 0.00 0.62 0.00 92 983.1
20260504044555 37 270 11.3 26.9 0.00 0.62 0.00 92 982.5
20260504043101 37 302 11.3 22.6 0.00 0.62 0.00 92 982.0
20260504041559 38 276 10.4 20.9 0.00 0.62 0.00 92 981.4
20260504040113 38 250 10.4 21.7 0.00 0.62 0.00 92 981.0
20260504034611 38 227 7.8 17.4 0.00 0.62 0.00 92 980.1
20260504033059 38 260 8.7 17.4 0.00 0.62 0.00 93 979.4
20260504031611 38 260 9.6 17.4 0.00 0.62 0.00 93 978.4
20260504030112 39 296 8.7 20.0 0.01 0.62 0.00 93 977.6
20260504024555 39 298 8.7 15.6 0.02 0.62 0.62 94 976.7
20260504023055 39 281 7.8 13.0 0.02 0.61 0.61 94 976.3
20260504021610 39 282 7.0 12.2 0.03 0.61 0.61 94 975.2
20260504020057 38 343 4.3 8.7 0.03 0.60 0.60 94 974.6
20260504014600 38 325 4.3 9.6 0.02 0.59 0.59 94 974.4
20260504013103 38 20 4.3 11.3 0.01 0.59 0.59 93 974.1
20260504011600 38 5 7.0 14.8 0.00 0.58 0.58 93 974.5
20260504010059 38 83 9.6 15.6 0.00 0.57 0.57 93 975.1
20260504004559 39 100 7.0 18.2 0.00 0.57 0.57 93 975.8
20260504003100 39 95 8.7 13.9 0.00 0.57 0.57 93 976.6
20260504001608 40 99 7.0 13.0 0.02 0.57 0.57 93 977.9
20260504000138 40 95 7.8 15.6 0.02 0.56 0.56 94 978.5
20260503234604 41 90 11.3 20.9 0.03 0.56 0.56 94 979.0
20260503233103 40 100 9.6 27.8 0.04 0.56 0.56 94 979.6
20260503231559 39 86 13.9 29.5 0.03 0.55 0.55 93 980.6
20260503230059 39 86 17.4 35.6 0.03 0.54 0.54 93 981.2
20260503224554 40 56 18.2 37.4 0.03 0.52 0.52 93 981.8
20260503223059 39 66 17.4 35.6 0.03 0.51 0.51 93 982.8
20260503221557 39 59 20.0 38.2 0.05 0.51 0.51 93 983.8
20260503220059 39 74 18.2 33.9 0.07 0.50 0.50 93 985.0
20260503214555 38 48 19.1 33.9 0.09 0.49 0.49 93 985.7
20260503213055 38 102 19.1 32.2 0.10 0.48 0.48 93 986.9
20260503211556 37 70 19.1 30.4 0.10 0.45 0.45 93 987.6
20260503210054 37 37 13.9 33.9 0.14 0.42 0.42 93 988.9
20260503204556 37 46 16.5 30.4 0.18 0.40 0.40 93 989.9
20260503203101 36 91 17.4 36.5 0.18 0.37 0.37 93 990.7
20260503201600 36 69 16.5 28.7 0.20 0.35 0.35 93 991.8
20260503200100 36 58 13.9 32.2 0.14 0.27 0.27 93 992.5
20260503194603 37 58 18.2 29.5 0.12 0.22 0.22 93 992.8
20260503193059 37 64 18.2 33.9 0.12 0.18 0.18 93 993.9